User: anonymous   Login
Location: Unspecified
(0.0000°N, 0.0000°E)
Time: 22:41:14
(UTC+00:00)
Language:

USA 200 - Orbit

View from above orbital plane
View from above orbital plane
View from above satellite
View from above satellite

Ground track
Ground track

The orbit data is extracted from the following two-line orbital elements,

1 32706U 08010A   14350.14059405 -.00000379  00000-0  00000-0 0    01
2 32706  63.1439 105.8680 6947213 268.0107  18.1230  2.00614297    06
Epoch (UTC): 16 December 2014 03:22:27
Eccentricity: 0.6947213
inclination: 63.1439°
perigee height: 1729 km
apogee height: 38626 km
right ascension of ascending node: 105.8680°
argument of perigee: 268.0107°
revolutions per day: 2.00614297
mean anomaly at epoch: 18.1230°
orbit number at epoch: 0

The dashed part of the orbit path shows where the satellite is in the earth's shadow,  

DLR